| time (UTC) | temp C | wind direction | speed KPH | gust KPH | rain 1hr cm | rain 24hr cm | rain mn cm | humidity % | barometer mb |
| 20260508003006 | 5 | 315 | 0.0 | 3.2 | 0.00 | 0.00 | 0.00 | 93 | 1016.4 |
| 20260508002006 | 6 | 315 | 0.0 | 3.2 | 0.00 | 0.00 | 0.00 | 93 | 1016.4 |
| 20260508001216 | 6 | 0 | 0.0 | 0.0 | 0.00 | 0.00 | 0.00 | 93 | 1016.5 |
| 20260508000005 | 6 | 0 | 0.0 | 0.0 | 0.00 | 0.00 | 0.00 | 92 | 1016.6 |
| 20260507235218 | 6 | 0 | 0.0 | 0.0 | 0.00 | 0.00 | 0.00 | 92 | 1016.5 |
| 20260507234006 | 7 | 0 | 0.0 | 0.0 | 0.00 | 0.00 | 0.00 | 92 | 1016.6 |
| 20260507233005 | 7 | 0 | 0.0 | 0.0 | 0.00 | 0.00 | 0.00 | 92 | 1016.8 |
| 20260507232006 | 7 | 0 | 0.0 | 0.0 | 0.00 | 0.00 | 0.00 | 87 | 1016.7 |
| 20260507231006 | 7 | 90 | 0.0 | 3.2 | 0.00 | 0.00 | 0.00 | 87 | 1016.8 |
| 20260507230218 | 7 | 84 | 0.0 | 3.2 | 0.00 | 0.00 | 0.00 | 87 | 1016.7 |
| 20260507225007 | 8 | 0 | 0.0 | 0.0 | 0.00 | 0.00 | 0.00 | 87 | 1017.0 |
| 20260507224003 | 8 | 0 | 0.0 | 0.0 | 0.00 | 0.00 | 0.00 | 86 | 1017.1 |
| 20260507223004 | 8 | 315 | 0.0 | 3.2 | 0.00 | 0.00 | 0.00 | 86 | 1017.1 |
| 20260507222005 | 8 | 315 | 1.6 | 3.2 | 0.00 | 0.00 | 0.00 | 85 | 1017.1 |
| 20260507221004 | 8 | 315 | 0.0 | 3.2 | 0.00 | 0.00 | 0.00 | 84 | 1017.0 |
| 20260507220004 | 8 | 315 | 0.0 | 1.6 | 0.00 | 0.00 | 0.00 | 84 | 1017.1 |
| 20260507215003 | 8 | 0 | 0.0 | 0.0 | 0.00 | 0.00 | 0.00 | 83 | 1017.1 |
| 20260507214006 | 8 | 0 | 0.0 | 0.0 | 0.00 | 0.00 | 0.00 | 83 | 1017.1 |
| 20260507213006 | 8 | 0 | 0.0 | 1.6 | 0.00 | 0.00 | 0.00 | 83 | 1017.0 |
| 20260507212006 | 9 | 45 | 0.0 | 3.2 | 0.00 | 0.00 | 0.00 | 82 | 1017.0 |
| 20260507211003 | 9 | 45 | 0.0 | 3.2 | 0.00 | 0.00 | 0.00 | 82 | 1016.9 |
| 20260507210214 | 9 | 0 | 0.0 | 0.0 | 0.00 | 0.00 | 0.00 | 81 | 1016.9 |
| 20260507205003 | 9 | 51 | 0.0 | 3.2 | 0.00 | 0.00 | 0.00 | 81 | 1017.1 |
| 20260507204005 | 9 | 90 | 0.0 | 3.2 | 0.00 | 0.00 | 0.00 | 81 | 1017.0 |
| 20260507203003 | 9 | 102 | 0.0 | 3.2 | 0.00 | 0.00 | 0.00 | 80 | 1016.9 |
| 20260507202005 | 9 | 135 | 0.0 | 3.2 | 0.00 | 0.00 | 0.00 | 80 | 1016.8 |
| 20260507201005 | 9 | 142 | 1.6 | 3.2 | 0.00 | 0.00 | 0.00 | 79 | 1016.7 |
| 20260507200006 | 9 | 137 | 1.6 | 3.2 | 0.00 | 0.00 | 0.00 | 79 | 1016.6 |
| 20260507195004 | 10 | 132 | 1.6 | 3.2 | 0.00 | 0.00 | 0.00 | 78 | 1016.5 |
| 20260507194217 | 10 | 120 | 1.6 | 6.4 | 0.00 | 0.00 | 0.00 | 78 | 1016.5 |
| 20260507193005 | 10 | 100 | 1.6 | 4.8 | 0.00 | 0.00 | 0.00 | 77 | 1016.4 |
| 20260507192005 | 10 | 149 | 3.2 | 6.4 | 0.00 | 0.00 | 0.00 | 77 | 1016.4 |
| 20260507191220 | 10 | 150 | 3.2 | 6.4 | 0.00 | 0.00 | 0.00 | 76 | 1016.4 |
| 20260507190216 | 10 | 132 | 3.2 | 6.4 | 0.00 | 0.00 | 0.00 | 76 | 1016.4 |
| 20260507185005 | 10 | 153 | 3.2 | 6.4 | 0.00 | 0.00 | 0.00 | 75 | 1016.6 |
| 20260507184213 | 10 | 86 | 4.8 | 11.3 | 0.00 | 0.00 | 0.00 | 75 | 1016.6 |
| 20260507183005 | 10 | 134 | 4.8 | 9.7 | 0.00 | 0.00 | 0.00 | 74 | 1016.5 |
| 20260507182004 | 10 | 147 | 4.8 | 9.7 | 0.00 | 0.00 | 0.00 | 73 | 1016.5 |
| 20260507181005 | 11 | 132 | 4.8 | 8.0 | 0.00 | 0.00 | 0.00 | 73 | 1016.4 |
| 20260507180005 | 11 | 136 | 6.4 | 12.9 | 0.00 | 0.00 | 0.00 | 73 | 1016.4 |
| 20260507175005 | 11 | 143 | 8.0 | 14.5 | 0.00 | 0.00 | 0.00 | 72 | 1016.3 |
| 20260507174006 | 11 | 161 | 8.0 | 17.7 | 0.00 | 0.00 | 0.00 | 72 | 1016.3 |
| 20260507173004 | 11 | 148 | 6.4 | 16.1 | 0.00 | 0.00 | 0.00 | 71 | 1016.4 |
| 20260507172003 | 11 | 127 | 4.8 | 12.9 | 0.00 | 0.00 | 0.00 | 71 | 1016.2 |
| 20260507171005 | 12 | 136 | 4.8 | 12.9 | 0.00 | 0.00 | 0.00 | 70 | 1016.4 |
| 20260507170005 | 12 | 133 | 4.8 | 11.3 | 0.00 | 0.00 | 0.00 | 70 | 1016.4 |
| 20260507165005 | 12 | 125 | 6.4 | 12.9 | 0.00 | 0.00 | 0.00 | 69 | 1016.4 |
| 20260507164003 | 12 | 152 | 6.4 | 12.9 | 0.00 | 0.00 | 0.00 | 68 | 1016.5 |
| 20260507163005 | 12 | 146 | 6.4 | 12.9 | 0.00 | 0.00 | 0.00 | 68 | 1016.4 |
| 20260507162004 | 12 | 118 | 6.4 | 12.9 | 0.00 | 0.00 | 0.00 | 62 | 1016.6 |
| 20260507161003 | 13 | 213 | 4.8 | 9.7 | 0.00 | 0.00 | 0.00 | 62 | 1016.5 |
| 20260507160005 | 13 | 112 | 6.4 | 12.9 | 0.00 | 0.00 | 0.00 | 61 | 1016.5 |
| 20260507155007 | 13 | 113 | 6.4 | 12.9 | 0.00 | 0.00 | 0.00 | 62 | 1016.7 |
| 20260507154005 | 12 | 132 | 6.4 | 14.5 | 0.00 | 0.03 | 0.00 | 61 | 1016.5 |
| 20260507153004 | 13 | 126 | 8.0 | 16.1 | 0.00 | 0.05 | 0.00 | 61 | 1016.4 |
| 20260507152005 | 13 | 178 | 6.4 | 14.5 | 0.00 | 0.10 | 0.00 | 60 | 1016.5 |
| 20260507151005 | 14 | 129 | 6.4 | 16.1 | 0.00 | 0.10 | 0.00 | 59 | 1016.4 |
| 20260507150005 | 14 | 136 | 8.0 | 16.1 | 0.00 | 0.10 | 0.00 | 57 | 1016.4 |
| 20260507145005 | 15 | 118 | 6.4 | 12.9 | 0.00 | 0.10 | 0.00 | 56 | 1016.4 |
| 20260507144220 | 15 | 134 | 8.0 | 17.7 | 0.00 | 0.10 | 0.00 | 55 | 1016.4 |
| 20260507143216 | 15 | 140 | 8.0 | 17.7 | 0.00 | 0.10 | 0.00 | 53 | 1016.5 |
| 20260507142005 | 16 | 133 | 8.0 | 17.7 | 0.00 | 0.10 | 0.00 | 52 | 1016.3 |
| 20260507141003 | 16 | 95 | 8.0 | 14.5 | 0.00 | 0.10 | 0.00 | 56 | 1016.3 |
| 20260507140006 | 16 | 131 | 8.0 | 19.3 | 0.00 | 0.10 | 0.00 | 56 | 1016.3 |
| 20260507135215 | 16 | 124 | 8.0 | 14.5 | 0.00 | 0.10 | 0.00 | 53 | 1016.3 |
| 20260507134216 | 16 | 94 | 8.0 | 17.7 | 0.00 | 0.10 | 0.00 | 54 | 1016.5 |
| 20260507133003 | 16 | 116 | 8.0 | 16.1 | 0.00 | 0.13 | 0.00 | 57 | 1016.4 |
| 20260507132217 | 15 | 114 | 8.0 | 16.1 | 0.00 | 0.13 | 0.00 | 57 | 1016.3 |
| 20260507131006 | 15 | 145 | 6.4 | 12.9 | 0.00 | 0.13 | 0.00 | 56 | 1016.2 |
| 20260507130005 | 16 | 132 | 6.4 | 12.9 | 0.00 | 0.13 | 0.00 | 53 | 1016.2 |
| 20260507125003 | 16 | 149 | 6.4 | 14.5 | 0.00 | 0.13 | 0.00 | 57 | 1016.1 |
| 20260507124004 | 15 | 131 | 8.0 | 17.7 | 0.00 | 0.13 | 0.00 | 57 | 1016.1 |
| 20260507123003 | 15 | 174 | 8.0 | 16.1 | 0.00 | 0.15 | 0.00 | 56 | 1016.0 |
| 20260507122006 | 14 | 149 | 6.4 | 12.9 | 0.00 | 0.15 | 0.00 | 60 | 1016.2 |
| 20260507121005 | 14 | 177 | 9.7 | 16.1 | 0.00 | 0.15 | 0.00 | 58 | 1016.1 |
| 20260507120005 | 16 | 156 | 3.2 | 12.9 | 0.00 | 0.15 | 0.00 | 60 | 1016.1 |
| 20260507115003 | 14 | 118 | 6.4 | 12.9 | 0.00 | 0.15 | 0.00 | 60 | 1016.0 |
| 20260507114005 | 14 | 153 | 6.4 | 16.1 | 0.00 | 0.15 | 0.00 | 60 | 1016.0 |
| 20260507113006 | 14 | 145 | 6.4 | 16.1 | 0.00 | 0.15 | 0.00 | 57 | 1016.1 |
| 20260507112004 | 15 | 60 | 6.4 | 12.9 | 0.00 | 0.15 | 0.00 | 61 | 1016.0 |
| 20260507111005 | 14 | 56 | 6.4 | 12.9 | 0.00 | 0.15 | 0.00 | 63 | 1016.1 |
| 20260507110004 | 13 | 87 | 6.4 | 12.9 | 0.00 | 0.15 | 0.00 | 62 | 1016.2 |
| 20260507105006 | 13 | 70 | 6.4 | 12.9 | 0.00 | 0.15 | 0.00 | 63 | 1016.3 |
| 20260507104005 | 13 | 82 | 4.8 | 9.7 | 0.00 | 0.15 | 0.00 | 61 | 1016.2 |
| 20260507103006 | 14 | 91 | 4.8 | 9.7 | 0.00 | 0.15 | 0.00 | 61 | 1016.3 |
| 20260507102006 | 15 | 81 | 4.8 | 9.7 | 0.00 | 0.15 | 0.00 | 61 | 1016.2 |
| 20260507101005 | 14 | 22 | 4.8 | 12.9 | 0.00 | 0.15 | 0.00 | 62 | 1016.0 |
| 20260507100007 | 13 | 3 | 3.2 | 6.4 | 0.00 | 0.15 | 0.00 | 67 | 1016.0 |
| 20260507095006 | 12 | 61 | 6.4 | 9.7 | 0.00 | 0.15 | 0.00 | 66 | 1016.0 |
| 20260507094004 | 12 | 33 | 6.4 | 12.9 | 0.00 | 0.15 | 0.00 | 66 | 1015.8 |
| 20260507093003 | 13 | 60 | 4.8 | 11.3 | 0.00 | 0.15 | 0.00 | 65 | 1015.8 |
| 20260507092004 | 12 | 140 | 3.2 | 6.4 | 0.00 | 0.15 | 0.00 | 70 | 1015.9 |
| 20260507091216 | 12 | 128 | 3.2 | 6.4 | 0.00 | 0.15 | 0.00 | 69 | 1015.9 |
| 20260507090006 | 12 | 111 | 3.2 | 6.4 | 0.00 | 0.15 | 0.00 | 72 | 1015.8 |
| 20260507085005 | 11 | 43 | 4.8 | 6.4 | 0.00 | 0.15 | 0.00 | 71 | 1015.7 |
| 20260507084005 | 11 | 86 | 3.2 | 6.4 | 0.00 | 0.15 | 0.00 | 72 | 1015.7 |
| 20260507083004 | 11 | 34 | 3.2 | 6.4 | 0.00 | 0.15 | 0.00 | 72 | 1015.6 |
| 20260507082003 | 11 | 77 | 3.2 | 6.4 | 0.00 | 0.15 | 0.00 | 72 | 1015.7 |
| 20260507081006 | 12 | 94 | 3.2 | 6.4 | 0.00 | 0.15 | 0.00 | 70 | 1015.6 |
| 20260507080006 | 12 | 105 | 4.8 | 6.4 | 0.00 | 0.15 | 0.00 | 71 | 1015.5 |
| 20260507075004 | 12 | 88 | 3.2 | 6.4 | 0.00 | 0.15 | 0.00 | 74 | 1015.5 |
| 20260507074003 | 11 | 125 | 3.2 | 9.7 | 0.00 | 0.15 | 0.00 | 76 | 1015.3 |
| 20260507073005 | 10 | 114 | 4.8 | 9.7 | 0.00 | 0.15 | 0.00 | 74 | 1015.3 |
| 20260507072006 | 11 | 47 | 4.8 | 9.7 | 0.00 | 0.15 | 0.00 | 80 | 1015.2 |
| 20260507071005 | 11 | 52 | 3.2 | 8.0 | 0.00 | 0.15 | 0.00 | 85 | 1015.3 |
| 20260507070006 | 10 | 67 | 4.8 | 9.7 | 0.00 | 0.15 | 0.00 | 91 | 1015.2 |
| 20260507065006 | 10 | 66 | 4.8 | 8.0 | 0.00 | 0.15 | 0.00 | 96 | 1015.3 |
| 20260507064004 | 9 | 66 | 3.2 | 6.4 | 0.00 | 0.15 | 0.00 | 99 | 1015.2 |
| 20260507063006 | 8 | 61 | 3.2 | 6.4 | 0.00 | 0.15 | 0.00 | 99 | 1015.2 |
| 20260507062005 | 8 | 81 | 3.2 | 6.4 | 0.00 | 0.15 | 0.00 | 99 | 1015.2 |
| 20260507061218 | 7 | 37 | 1.6 | 3.2 | 0.00 | 0.15 | 0.00 | 99 | 1015.1 |
| 20260507060219 | 6 | 45 | 0.0 | 3.2 | 0.00 | 0.15 | 0.00 | 99 | 1015.1 |
| 20260507055003 | 6 | 45 | 0.0 | 3.2 | 0.00 | 0.15 | 0.00 | 99 | 1014.9 |
| 20260507054003 | 5 | 45 | 0.0 | 3.2 | 0.00 | 0.15 | 0.00 | 99 | 1015.1 |
| 20260507053217 | 4 | 0 | 0.0 | 0.0 | 0.00 | 0.15 | 0.00 | 99 | 1014.9 |
| 20260507052005 | 3 | 315 | 0.0 | 1.6 | 0.00 | 0.15 | 0.00 | 99 | 1014.8 |
| 20260507051213 | 3 | 315 | 0.0 | 3.2 | 0.00 | 0.15 | 0.00 | 99 | 1014.8 |
| 20260507050008 | 3 | 315 | 1.6 | 3.2 | 0.00 | 0.15 | 0.00 | 99 | 1014.9 |
| 20260507045005 | 3 | 315 | 0.0 | 3.2 | 0.00 | 0.15 | 0.00 | 99 | 1014.7 |
| 20260507044005 | 3 | 315 | 0.0 | 3.2 | 0.00 | 0.15 | 0.00 | 99 | 1014.7 |
| 20260507043003 | 3 | 315 | 1.6 | 3.2 | 0.00 | 0.15 | 0.00 | 99 | 1014.5 |
| 20260507042006 | 3 | 315 | 1.6 | 3.2 | 0.00 | 0.15 | 0.00 | 99 | 1014.4 |
| 20260507041006 | 3 | 335 | 0.0 | 3.2 | 0.00 | 0.15 | 0.00 | 99 | 1014.3 |
| 20260507040004 | 3 | 360 | 0.0 | 3.2 | 0.00 | 0.15 | 0.00 | 99 | 1014.2 |
| 20260507035003 | 4 | 360 | 0.0 | 3.2 | 0.00 | 0.15 | 0.00 | 99 | 1014.1 |
| 20260507034007 | 4 | 10 | 1.6 | 3.2 | 0.00 | 0.15 | 0.00 | 99 | 1014.2 |
| 20260507033003 | 4 | 45 | 0.0 | 3.2 | 0.00 | 0.15 | 0.00 | 99 | 1014.2 |
| 20260507032005 | 4 | 45 | 1.6 | 3.2 | 0.00 | 0.15 | 0.00 | 99 | 1014.3 |
| 20260507031004 | 4 | 45 | 1.6 | 3.2 | 0.00 | 0.15 | 0.00 | 99 | 1014.2 |
| 20260507030005 | 4 | 8 | 1.6 | 4.8 | 0.00 | 0.15 | 0.00 | 99 | 1014.2 |
| 20260507025006 | 4 | 18 | 1.6 | 4.8 | 0.00 | 0.15 | 0.00 | 99 | 1014.3 |
| 20260507024218 | 4 | 16 | 1.6 | 4.8 | 0.00 | 0.15 | 0.00 | 99 | 1014.2 |
| 20260507023003 | 4 | 360 | 0.0 | 3.2 | 0.00 | 0.15 | 0.00 | 99 | 1014.2 |
| 20260507022005 | 4 | 14 | 0.0 | 3.2 | 0.00 | 0.15 | 0.00 | 98 | 1014.2 |
| 20260507021006 | 4 | 0 | 0.0 | 1.6 | 0.00 | 0.15 | 0.00 | 98 | 1014.1 |
| 20260507020005 | 4 | 360 | 0.0 | 3.2 | 0.00 | 0.15 | 0.00 | 98 | 1014.1 |
| 20260507015217 | 4 | 1 | 1.6 | 3.2 | 0.00 | 0.15 | 0.00 | 98 | 1014.1 |
| 20260507014003 | 5 | 14 | 1.6 | 4.8 | 0.00 | 0.15 | 0.00 | 97 | 1014.0 |
| 20260507013004 | 5 | 41 | 1.6 | 4.8 | 0.00 | 0.15 | 0.00 | 97 | 1013.9 |
| 20260507012006 | 5 | 41 | 1.6 | 4.8 | 0.00 | 0.15 | 0.00 | 97 | 1014.0 |
| 20260507010217 | 5 | 360 | 1.6 | 3.2 | 0.00 | 0.15 | 0.00 | 96 | 1014.0 |
| 20260507005006 | 5 | 15 | 1.6 | 3.2 | 0.00 | 0.15 | 0.00 | 96 | 1014.0 |
| 20260507004003 | 5 | 9 | 1.6 | 3.2 | 0.00 | 0.15 | 0.00 | 96 | 1014.0 |
| 20260507003220 | 5 | 360 | 1.6 | 3.2 | 0.00 | 0.15 | 0.00 | 95 | 1014.0 |